TimePDT,TemperatureF,Dew PointF,Humidity,Sea Level PressureIn,VisibilityMPH,Wind Direction,Wind SpeedMPH,Gust SpeedMPH,PrecipitationIn,Events,Conditions,WindDirDegrees,DateUTC
12:15 AM,37.4,26.6,65,30.13,10.0,Calm,Calm,-,N/A,,Clear,0,2013-10-12 07:15:00
12:35 AM,35.6,26.6,70,30.13,10.0,Calm,Calm,-,N/A,,Clear,0,2013-10-12 07:35:00
12:55 AM,35.6,26.6,70,30.13,10.0,NW,3.5,-,N/A,,Clear,310,2013-10-12 07:55:00
4:15 AM,26.6,23.0,86,30.10,10.0,Calm,Calm,-,N/A,,Clear,0,2013-10-12 11:15:00
4:35 AM,28.4,23.0,80,30.10,10.0,Calm,Calm,-,N/A,,Clear,0,2013-10-12 11:35:00
4:55 AM,26.6,23.0,86,30.10,10.0,North,-9999.0,-,N/A,,Clear,0,2013-10-12 11:55:00
5:15 AM,24.8,21.2,86,30.10,10.0,North,-9999.0,-,N/A,,Clear,0,2013-10-12 12:15:00
5:35 AM,24.8,21.2,86,30.10,10.0,North,-9999.0,-,N/A,,Clear,0,2013-10-12 12:35:00
5:55 AM,21.2,17.6,86,30.10,10.0,Calm,Calm,-,N/A,,Clear,0,2013-10-12 12:55:00
6:15 AM,23.0,21.2,93,30.10,10.0,NNW,3.5,-,N/A,,Clear,340,2013-10-12 13:15:00
6:35 AM,23.0,21.2,93,30.10,10.0,North,4.6,-,N/A,,Clear,360,2013-10-12 13:35:00
6:55 AM,21.2,17.6,86,30.10,10.0,Calm,Calm,-,N/A,,Clear,0,2013-10-12 13:55:00
7:15 AM,23.0,19.4,86,30.10,10.0,Calm,Calm,-,N/A,,Clear,0,2013-10-12 14:15:00
7:35 AM,23.0,19.4,86,30.11,10.0,North,4.6,-,N/A,,Clear,360,2013-10-12 14:35:00
7:55 AM,28.4,23.0,80,30.11,10.0,Calm,Calm,-,N/A,,Clear,0,2013-10-12 14:55:00
8:35 AM,33.8,24.8,70,30.11,10.0,ESE,3.5,-,N/A,,Clear,110,2013-10-12 15:35:00
8:55 AM,37.4,26.6,65,30.11,10.0,SE,3.5,-,N/A,,Clear,140,2013-10-12 15:55:00
9:15 AM,41.0,28.4,61,30.11,10.0,Calm,Calm,-,N/A,,Clear,0,2013-10-12 16:15:00
9:35 AM,42.8,28.4,57,30.11,10.0,Calm,Calm,-,N/A,,Clear,0,2013-10-12 16:35:00
9:55 AM,46.4,28.4,50,30.10,10.0,Calm,Calm,-,N/A,,Clear,0,2013-10-12 16:55:00
10:15 AM,50.0,26.6,40,30.10,10.0,SE,4.6,-,N/A,,Clear,130,2013-10-12 17:15:00
10:35 AM,50.0,24.8,37,30.10,10.0,SSE,4.6,-,N/A,,Clear,150,2013-10-12 17:35:00
10:55 AM,51.8,24.8,35,30.09,10.0,SE,5.8,-,N/A,,Clear,140,2013-10-12 17:55:00
11:15 AM,53.6,26.6,35,30.09,10.0,SE,3.5,-,N/A,,Clear,130,2013-10-12 18:15:00
11:35 AM,53.6,24.8,33,30.08,10.0,ESE,4.6,-,N/A,,Clear,110,2013-10-12 18:35:00
11:55 AM,55.4,23.0,29,30.07,10.0,SE,4.6,-,N/A,,Clear,130,2013-10-12 18:55:00
12:15 PM,57.2,21.2,25,30.06,10.0,ESE,4.6,-,N/A,,Clear,120,2013-10-12 19:15:00
12:35 PM,59.0,21.2,23,30.05,10.0,SE,5.8,-,N/A,,Clear,130,2013-10-12 19:35:00
12:55 PM,59.0,23.0,25,30.03,10.0,ESE,9.2,-,N/A,,Clear,120,2013-10-12 19:55:00
1:15 PM,59.0,23.0,25,30.02,10.0,ESE,11.5,-,N/A,,Clear,120,2013-10-12 20:15:00
1:35 PM,60.8,23.0,23,30.01,10.0,ESE,12.7,-,N/A,,Clear,110,2013-10-12 20:35:00
1:55 PM,60.8,21.2,22,30.00,10.0,SE,5.8,-,N/A,,Clear,130,2013-10-12 20:55:00
2:15 PM,59.0,23.0,25,30.00,10.0,SE,3.5,-,N/A,,Clear,140,2013-10-12 21:15:00
2:35 PM,60.8,23.0,23,30.00,10.0,South,3.5,-,N/A,,Clear,180,2013-10-12 21:35:00
2:55 PM,60.8,14.0,16,29.99,10.0,West,20.7,29.9,N/A,,Clear,260,2013-10-12 21:55:00
3:15 PM,60.8,12.2,15,29.99,10.0,West,13.8,28.8,N/A,,Clear,270,2013-10-12 22:15:00
3:35 PM,60.8,12.2,15,29.99,10.0,West,17.3,27.6,N/A,,Clear,280,2013-10-12 22:35:00
3:55 PM,60.8,14.0,16,29.99,10.0,West,18.4,27.6,N/A,,Clear,270,2013-10-12 22:55:00
4:15 PM,59.0,14.0,17,29.99,10.0,West,16.1,28.8,N/A,,Clear,280,2013-10-12 23:15:00
4:35 PM,57.2,15.8,20,29.99,10.0,West,19.6,31.1,N/A,,Clear,270,2013-10-12 23:35:00
4:55 PM,57.2,15.8,20,29.99,10.0,West,11.5,25.3,N/A,,Clear,270,2013-10-12 23:55:00
5:15 PM,55.4,15.8,21,29.99,10.0,West,11.5,23.0,N/A,,Clear,280,2013-10-13 00:15:00
5:35 PM,55.4,14.0,20,29.99,10.0,WSW,10.4,18.4,N/A,,Clear,250,2013-10-13 00:35:00
5:55 PM,53.6,14.0,21,29.98,10.0,SW,11.5,23.0,N/A,,Clear,220,2013-10-13 00:55:00
6:15 PM,51.8,12.2,21,29.99,10.0,SW,11.5,20.7,N/A,,Clear,220,2013-10-13 01:15:00
6:35 PM,48.2,15.8,27,29.99,10.0,WNW,4.6,-,N/A,,Clear,290,2013-10-13 01:35:00
6:55 PM,46.4,19.4,34,29.99,10.0,WNW,11.5,-,N/A,,Clear,290,2013-10-13 01:55:00
7:15 PM,48.2,17.6,30,29.98,10.0,SW,15.0,21.9,N/A,,Clear,220,2013-10-13 02:15:00
7:35 PM,50.0,14.0,24,29.97,10.0,SSW,9.2,21.9,N/A,,Clear,210,2013-10-13 02:35:00
7:55 PM,44.6,24.8,46,29.98,10.0,WNW,17.3,20.7,N/A,,Clear,300,2013-10-13 02:55:00
8:15 PM,42.8,24.8,49,29.98,10.0,WNW,8.1,18.4,N/A,,Clear,300,2013-10-13 03:15:00
8:35 PM,42.8,26.6,53,29.99,10.0,SW,5.8,-,N/A,,Clear,220,2013-10-13 03:35:00
8:55 PM,41.0,23.0,49,29.99,10.0,Calm,Calm,-,N/A,,Clear,0,2013-10-13 03:55:00
9:15 PM,41.0,24.8,53,29.99,10.0,NNE,4.6,-,N/A,,Clear,20,2013-10-13 04:15:00
9:35 PM,41.0,21.2,45,29.99,10.0,NNW,3.5,-,N/A,,Clear,340,2013-10-13 04:35:00
9:55 PM,39.2,23.0,52,30.00,10.0,NW,5.8,-,N/A,,Clear,320,2013-10-13 04:55:00
10:15 PM,41.0,24.8,53,30.00,10.0,NW,4.6,-,N/A,,Clear,310,2013-10-13 05:15:00
10:35 PM,41.0,23.0,49,30.00,10.0,Calm,Calm,-,N/A,,Clear,0,2013-10-13 05:35:00
10:55 PM,39.2,24.8,56,30.01,10.0,WNW,5.8,-,N/A,,Clear,290,2013-10-13 05:55:00
11:15 PM,39.2,26.6,61,30.00,10.0,NW,9.2,-,N/A,,Clear,310,2013-10-13 06:15:00
11:35 PM,39.2,26.6,61,29.99,10.0,NW,6.9,-,N/A,,Clear,310,2013-10-13 06:35:00
11:55 PM,41.0,23.0,49,29.96,10.0,South,6.9,-,N/A,,Clear,190,2013-10-13 06:55:00